GPS IIR-19(M)

operational
NORAD ID: 32711 Int'l Des: 2008-012 Owner: AFSMC Country: US Constellation: GPS
MEOGNSS

关于 GPS IIR-19(M)

正在加载描述...

实时位置

正在加载3D地球...

即将过境

高度历史

Altitude vs Time

uPlot chart will show altitude changes over time

两行轨道根数

1 32711U 08012A 25259.42286760 -.00000038 00000-0 00000-0 0 9995
2 32711 54.4664 160.8593 0200599 244.2250 113.7318 2.00561603128267
Epoch: Sep 16, 2025 • Age: 40 hours

当前状态

高度 20550.0 km
速度 3.82 km/s
星下点 49.63°N, 101.12°W
发射日期 Mar 15, 2008
运行时间 17.5 years
类型 navigation

技术详情

分类 Payload
质量 1077.00 kg
干质量 910.00 kg
总质量 2032.00 kg
长度 1.50 m
直径 1.90 m
跨度 19.30 m
形状 Box + 2 Pan
制造商 LMVF
平台类型 Series 4000
阶段状态 In Orbit
所有者/国家 AFSMC/US

大型星座

Loading constellations...